Newport, OR (97365)

6:16 PM PST on February 13, 2016 (GMT -0800)
APRSWXNET | | Change Station
CLOSE
Current Station
Personal Weather Station
Location: Newport, OR
Elevation: 164 ft
Nearby Weather Stations

Elev 164 ft 44.64 °N, 124.05 °W | Updated 31 minutes ago

Rain
Rain
49 °F
Feels Like 43 °F
N
17
Wind Variable Wind from SE
Gusts 0.0 mph

Today
High -- | Low -- °F
--% Chance of Precip.
Yesterday
High -- | Low -- °F
Precip. -- in
Pressure 30.21 in
Visibility 3.0 miles
Clouds Overcast 800 ft
Windchill 43 °F
Dew Point 48 °F
Humidity 95%
Rainfall in
Snow Depth Not available.
7:19 AM 5:41 PM
Waxing Crescent, 36% visible
METAR KONP 140155Z AUTO 19020G31KT 3SM RA OVC008 09/08 A3021 RMK AO2 P0009
Pressure 30.21 in
Visibility 3.0 miles
Clouds Overcast 800 ft
Windchill 43 °F
Dew Point 48 °F
Humidity 95%
Rainfall in
Snow Depth Not available.
7:19 AM 5:41 PM
Waxing Crescent, 36% visible
METAR KONP 140155Z AUTO 19020G31KT 3SM RA OVC008 09/08 A3021 RMK AO2 P0009

10-Day Weather Forecast

Almanac

Astronomy

Feb. 13, 2016 Rise Set
Actual Time
Civil Twilight
Nautical Twilight
Astronomical Twilight
Moon
Length of Visible Light
Length of Day
Tomorrow will be .
, % of the Moon is Illuminated

Today's Extremes

State Highs State Lows

Community

WunderPhotos

Upload Photos

1,892,726 photos uploaded!

WunderBlog® & News

Nearby

Air Quality

  Air Quality AQ Index Pollutant
Not available.

Snow Depth

Station Depth Elevation

Earthquake Activity

City Distance Mag. Time & Date
Minimum magnitude displayed is 2.5.

Coastal Water Temperatures

Place Temperature

Stations

Nearby Weather Stations

Station Location Temp. Windchill Dew Point Humidity Wind Precip. Elev Updated Type
                   

Watches & Warnings

There are currently no watches in effect.